Weather History for Denver, CO

Change the Weather History Date:

Monday, December 10, 2012

  Actual Average (KDEN) Record (KDEN)
Temperature  
Mean Temperature 26 °F 30 °F  
Max Temperature 39 °F 43 °F 70 °F (1939)
Min Temperature 12 °F 17 °F -18 °F (1972)
Degree Days  
Heating Degree Days 40 35  
Month to date heating degree days 342  
Since 1 July heating degree days 1724  
Cooling Degree Days 0 0  
Month to date cooling degree days 0  
Year to date cooling degree days 769  
Moisture  
Dew Point 8 °F    
Average Humidity 52    
Maximum Humidity 100    
Minimum Humidity 21    
Precipitation  
Precipitation 0.00 in 0.01 in 0.44 in (1989)
Month to date precipitation 0.12  
Year to date precipitation 14.07  
Snow  
Snow 0.00 in - - ()
Month to date snowfall  
Since 1 July snowfall  
Snow Depth -    
Sea Level Pressure  
Sea Level Pressure 29.89 in    
Wind  
Wind Speed 11 mph (SW)    
Max Wind Speed 15 mph    
Max Gust Speed 18 mph    
Visibility 9 miles    
Events Snow    
T = Trace of Precipitation, MM = Missing Value Source: NWS Daily Summary

Daily Weather History Graph

Daily Weather History Graph

Search for Another Location

Airport:

Trip Planner

Search our weather history database for the weather conditions in past years. The results will help you decide how hot, cold, wet, or windy it might be!

Date:

Astronomy

Dec. 10, 2012 Rise Set
Actual Time 7:08 AM MST 4:33 PM MST
Civil Twilight 6:38 AM MST 5:03 PM MST
Nautical Twilight 6:04 AM MST 5:37 PM MST
Astronomical Twilight 5:31 AM MST 6:10 PM MST
Moon 3:55 AM MST (12/10) 2:24 PM MST (12/10)
Length of Visible Light 10h 25m
Length of Day
9h 24m
Waning Crescent, 10% of the Moon is Illuminated
Dec 10
Waning Crescent
Dec 13
New
Dec 19
First Quarter
Dec 28
Full
Jan 4
Last Quarter

Hourly Weather History & Observations

Time (MST) Temp. Windchill Dew Point Humidity Pressure Visibility Wind Dir Wind Speed Gust Speed Precip Events Conditions
12:19 AM 14.0 °F -0.8 °F 1.4 °F 57% 29.97 in 10.0 mi SSW 13.8 mph - N/A   Clear
12:40 AM 14.0 °F -1.4 °F 1.4 °F 57% 29.95 in 10.0 mi SSW 15.0 mph - N/A   Clear
1:01 AM 14.0 °F -0.8 °F 1.4 °F 57% 29.94 in 10.0 mi SSW 13.8 mph - N/A   Clear
1:18 AM 14.0 °F 0.5 °F 1.4 °F 57% 29.94 in 10.0 mi SSW 11.5 mph - N/A   Clear
2:01 AM 14.0 °F -0.2 °F -0.4 °F 53% 29.93 in 10.0 mi SSW 12.7 mph - N/A   Clear
2:16 AM 14.0 °F 0.5 °F -0.4 °F 53% 29.93 in 10.0 mi SSW 11.5 mph - N/A   Scattered Clouds
2:41 AM 12.2 °F -0.2 °F 1.4 °F 62% 29.91 in 10.0 mi South 9.2 mph - N/A   Scattered Clouds
2:58 AM 15.8 °F 2.1 °F -0.4 °F 49% 29.91 in 10.0 mi SSW 12.7 mph - N/A   Clear
3:17 AM 17.6 °F 4.3 °F -0.4 °F 45% 29.90 in 10.0 mi SSW 12.7 mph - N/A   Clear
3:37 AM 14.0 °F 1.2 °F 1.4 °F 57% 29.88 in 10.0 mi South 10.4 mph - N/A   Clear
4:01 AM 17.6 °F 4.3 °F -0.4 °F 45% 29.88 in 10.0 mi SSW 12.7 mph - N/A   Clear
4:18 AM 15.8 °F 2.7 °F 1.4 °F 53% 29.88 in 10.0 mi South 11.5 mph - N/A   Clear
5:01 AM 19.4 °F 8.6 °F -0.4 °F 42% 29.88 in 10.0 mi SSW 9.2 mph - N/A   Mostly Cloudy
5:17 AM 21.2 °F 10.1 °F 1.4 °F 42% 29.88 in 10.0 mi SSW 10.4 mph - N/A   Mostly Cloudy
5:40 AM 19.4 °F 7.9 °F 1.4 °F 46% 29.87 in 10.0 mi SSW 10.4 mph - N/A   Overcast
6:01 AM 19.4 °F 6.0 °F 1.4 °F 46% 29.86 in 10.0 mi SW 13.8 mph - N/A   Mostly Cloudy
6:17 AM 21.2 °F 8.9 °F 1.4 °F 42% 29.87 in 10.0 mi SW 12.7 mph - N/A   Scattered Clouds
6:41 AM 19.4 °F 9.5 °F 3.2 °F 49% 29.87 in 10.0 mi SSW 8.1 mph - N/A   Clear
6:53 AM 17.6 °F 5.7 °F 3.2 °F 53% 29.85 in 10.0 mi SW 10.4 mph - N/A   Clear
7:47 AM 24.8 °F 14.6 °F 3.2 °F 40% 29.85 in 40.0 mi WSW 10.4 mph - N/A   Scattered Clouds
8:50 AM 32.0 °F 22.1 °F 6.8 °F 35% 29.86 in 40.0 mi WSW 13.8 mph - N/A   Scattered Clouds
9:47 AM 33.8 °F 25.3 °F 5.0 °F 30% 29.87 in 40.0 mi West 11.5 mph 18.4 mph N/A   Mostly Cloudy
10:47 AM 35.6 °F 28.6 °F 5.0 °F 28% 29.87 in 40.0 mi West 9.2 mph - N/A   Mostly Cloudy
11:47 AM 37.4 °F 32.8 °F 1.4 °F 22% 29.85 in 40.0 mi NNW 5.8 mph - N/A   Mostly Cloudy
12:47 PM 39.2 °F 35.0 °F 1.4 °F 21% 29.83 in 40.0 mi West 5.8 mph - N/A   Scattered Clouds
1:50 PM 39.2 °F 35.0 °F 1.4 °F 21% 29.82 in 40.0 mi West 5.8 mph - N/A   Scattered Clouds
2:47 PM 37.4 °F 34.9 °F 1.4 °F 22% 29.81 in 40.0 mi NW 3.5 mph - N/A   Mostly Cloudy
3:48 PM 37.4 °F 29.8 °F 6.8 °F 28% 29.81 in 50.0 mi West 11.5 mph - N/A   Mostly Cloudy
4:48 PM 32.0 °F 24.8 °F 6.8 °F 35% 29.83 in 50.0 mi West 8.1 mph - N/A   Mostly Cloudy
5:56 PM 32.0 °F 22.1 °F 8.6 °F 38% 29.86 in 20.0 mi North 13.8 mph - N/A   Scattered Clouds
6:50 PM 30.2 °F 21.9 °F 12.2 °F 47% 29.87 in 20.0 mi East 9.2 mph - N/A   Overcast
7:48 PM 30.2 °F 22.6 °F 12.2 °F 47% 29.89 in 20.0 mi NE 8.1 mph - N/A   Overcast
9:01 PM 30.2 °F 25.4 °F 19.4 °F 64% 29.91 in 10.0 mi SE 4.6 mph - N/A   Overcast
9:21 PM 30.2 °F 23.4 °F 19.4 °F 64% 29.91 in 10.0 mi East 6.9 mph - N/A   Overcast
9:41 PM 30.2 °F 22.6 °F 21.2 °F 69% 29.92 in 10.0 mi ENE 8.1 mph - N/A Snow Light Snow
10:01 PM 28.4 °F 18.5 °F 24.8 °F 86% 29.93 in 4.0 mi ENE 11.5 mph - N/A Snow Light Snow
10:21 PM 28.4 °F 21.2 °F 26.6 °F 93% 29.94 in 2.5 mi ENE 6.9 mph - N/A Snow Light Snow
10:41 PM 28.4 °F 23.3 °F 26.6 °F 93% 29.95 in 1.0 mi ENE 4.6 mph - N/A Snow Light Snow
11:01 PM 28.4 °F - 26.6 °F 93% 29.96 in 1.5 mi Calm Calm - N/A Snow Light Snow
11:21 PM 28.4 °F 20.4 °F 26.6 °F 93% 29.96 in 1.8 mi North 8.1 mph - N/A Snow Light Snow
11:41 PM 26.6 °F 16.8 °F 26.6 °F 100% 29.97 in 1.2 mi NNE 10.4 mph - N/A Snow Light Snow